Simultaneous Nadir Overpasses (SNOs) Predictions

Prediction of SNOs between GOES-17 and METOP-A Satellite Orbit:

Table of predicted SNOs for the next 14.0 days since TLE Epoch: 11/1/2019
Index Date Time (GOES-17) GOES-17 Lat,Lon METOP-A Lat,Lon Distance(km) Time Diff (sec)
1 11/02/2019 18:05:19 -0.01,-137.21 -0.07,-136.80 45.97 80
2 11/04/2019 06:24:21 0.01,-137.20 -0.95,-141.43 481.60 80
3 11/05/2019 06:01:02 0.01,-137.20 0.19,-136.45 85.37 80
4 11/06/2019 18:19:54 -0.01,-137.19 0.84,-141.04 438.77 80
5 11/07/2019 18:01:55 -0.01,-137.18 -0.24,-136.05 128.04 80
6 11/09/2019 06:20:56 0.01,-137.17 -0.77,-140.68 400.08 80
7 11/10/2019 05:57:37 0.01,-137.16 0.31,-135.69 166.35 80
8 11/11/2019 18:16:30 -0.01,-137.14 0.66,-140.30 358.88 80
9 11/12/2019 17:58:31 -0.01,-137.13 -0.42,-135.31 207.13 80
10 11/14/2019 06:14:52 0.01,-137.10 -0.59,-139.94 322.39 80
11 11/15/2019 05:56:52 0.01,-137.08 0.49,-134.95 243.04 80




NCC Satellite Simultaneous Nadir Overpasses (SNOs) Prediction Service
